User: anonymous   Login
Location: Unspecified
(0.0000°N, 0.0000°E)
Time: 19:08:58
(UTC+00:00)
Language:

STARLINK-31262 - Orbit

View from above orbital plane
View from above orbital plane
View from above satellite
View from above satellite

Ground track
Ground track

The orbit is defined by the following mean orbital elements,

1 58847U          26145.15965051 +.00000000 +00000-0 +59027-4 0 00002
2 58847  53.1626 298.7821 0001399  91.2315 268.8846 15.30181578    08
Epoch (UTC): 25 May 2026 03:49:53
Eccentricity: 0.0001399
inclination: 53.1626°
perigee height: 474 km
apogee height: 476 km
right ascension of ascending node: 298.7821°
argument of perigee: 91.2315°
revolutions per day: 15.30181578
mean anomaly at epoch: 268.8846°

The dashed part of the orbit path shows where the satellite is in the earth's shadow,  

DLR